This is the latest recevied weather packets stored in our database for station/object AC4AG. If no packets are shown the sender has not sent any weather packets the latest 10 day(s).
| Time | Temp. | Humidity | Pressure | Rain* | Wind** | Luminosity | Snow |
|---|---|---|---|---|---|---|---|
| 1777737638 | 12.22° C | 56% | 1016.7 hPa | 0 mm | - | 195 W/m² | - |
| 1777737336 | 12.22° C | 55% | 1017 hPa | 0 mm | - | 865 W/m² | - |
| 1777737033 | 12.22° C | 55% | 1017.4 hPa | 0 mm | - | 824 W/m² | - |
| 1777736729 | 12.78° C | 56% | 1017 hPa | 0 mm | - | 810 W/m² | - |
| 1777736100 | 12.22° C | 58% | 1017.3 hPa | 0 mm | - | 831 W/m² | - |
| 1777735797 | 12.22° C | 56% | 1017 hPa | 0 mm | - | 809 W/m² | - |
| 1777735495 | 11.67° C | 58% | 1017.1 hPa | 0 mm | - | 756 W/m² | - |
| 1777735193 | 11.67° C | 58% | 1017 hPa | 0 mm | - | 724 W/m² | - |
| 1777734889 | 11.67° C | 58% | 1017.1 hPa | 0 mm | - | 706 W/m² | - |
| 1777734587 | 11.67° C | 57% | 1017 hPa | 0 mm | - | 683 W/m² | - |
| 1777734284 | 12.22° C | 55% | 1016.9 hPa | 0 mm | - | 668 W/m² | - |
| 1777733979 | 12.22° C | 58% | 1017.1 hPa | 0 mm | - | 661 W/m² | - |
| 1777733677 | 11.67° C | 60% | 1016.9 hPa | 0 mm | - | 647 W/m² | - |
| 1777733373 | 11.67° C | 60% | 1016.9 hPa | 0 mm | - | 629 W/m² | - |
| 1777733070 | 10.56° C | 62% | 1016.8 hPa | 0 mm | - | 612 W/m² | - |
| 1777732766 | 11.11° C | 58% | 1016.9 hPa | 0 mm | - | 598 W/m² | - |
| 1777732463 | 11.67° C | 60% | 1016.7 hPa | 0 mm | - | 587 W/m² | - |
| 1777732160 | 11.11° C | 63% | 1016.5 hPa | 0 mm | - | 571 W/m² | - |
| 1777731857 | 11.11° C | 61% | 1016.8 hPa | 0 mm | - | 554 W/m² | - |
| 1777731554 | 11.67° C | 64% | 1016.6 hPa | 0 mm | - | 535 W/m² | - |
| 1777731252 | 11.11° C | 65% | 1016.5 hPa | 0 mm | - | 521 W/m² | - |
| 1777730949 | 10.56° C | 66% | 1016.5 hPa | 0 mm | - | 504 W/m² | - |
| 1777730648 | 10.56° C | 63% | 1016.8 hPa | 0 mm | - | 486 W/m² | - |
| 1777730343 | 10° C | 67% | 1016.9 hPa | 0 mm | - | 465 W/m² | - |
| 1777730040 | 10° C | 66% | 1017.1 hPa | 0 mm | - | 453 W/m² | - |
* Rain latest hour (hover to see other rain measurements)
** Current wind speed in m/s (hover to see current wind gust speed)